Temperature
21 21 20 20 20 20 19 19 19 19 19 19 19 19 18 18 18 18 18 18 18 18 18 18 18 17 17 17 17 17 17 17 17 17 17 17 17 17 17 17 17 17 17
21 21 20 20 20 20 19 19 19 19 19 19 18 18 18 18 18 18 18 18 18 18 18 17 17 17 17 17 17 17 17 17 17 17 17 17 17 17 17 17 17 17 16
21 20 20 20 20 20 19 19 19 19 19 19 18 18 18 18 18 18 18 17 17 17 17 17 17 17 17 17 17 17 17 17 17 17 17 17 16 16 16 16 16 16 16
20 20 20 20 20 20 19 19 19 19 19 19 18 18 18 18 18 17 17 17 17 17 17 17 17 17 17 17 17 17 16 16 16 16 16 16 16 16 16 16 16 16 16
20 20 20 20 20 19 19 19 19 18 18 18 18 18 18 17 17 17 17 17 17 17 17 17 17 16 16 16 16 16 16 16 16 16 16 16 16 16 16 16 16 16 16
20 20 20 20 19 19 19 18 18 18 18 18 18 17 17 17 17 17 17 17 17 17 17 16 16 16 16 16 16 16 16 16 16 16 16 16 16 16 15 15 15 15 15
20 20 20 19 19 19 19 18 18 18 18 17 17 17 17 17 17 17 16 16 16 16 16 16 16 16 16 16 16 16 16 15 15 15 15 15 15 15 15 15 15 15 15
20 19 19 19 19 19 18 18 18 18 17 17 17 17 17 17 17 16 16 16 16 16 16 16 16 16 16 16 16 15 15 15 15 15 15 15 15 15 14 14 14 14 14
19 19 19 19 18 18 18 18 17 17 17 17 16 16 16 17 16 16 16 16 16 16 16 16 16 15 15 15 15 15 15 15 15 14 14 14 14 14 14 14 14 14 14
18 18 18 18 18 17 17 17 17 16 16 16 16 16 16 16 16 16 16 15 15 15 15 15 15 15 15 15 15 15 14 15 14 14 14 14 14 14 14 13 13 13 13
18 18 18 17 17 17 17 17 17 16 16 16 16 16 15 15 15 15 15 15 15 15 15 15 15 15 15 14 14 14 14 14 14 14 14 14 14 13 13 13 13 13 13
17 17 17 17 17 17 16 16 16 16 16 15 15 15 15 15 15 15 15 15 15 14 15 15 15 14 14 14 14 14 14 13 13 13 13 13 13 13 13 13 13 13 13
17 17 17 16 16 16 16 16 16 15 15 15 15 15 15 14 14 14 14 14 14 14 14 14 14 14 14 14 14 14 14 13 13 13 13 13 13 13 13 13 12 12 12
16 16 16 16 16 16 15 15 15 15 15 15 15 15 14 14 14 14 14 14 14 14 14 14 14 13 13 13 13 13 13 13 13 12 12 12 12 12 12 12 12 12 12
16 15 15 15 15 15 15 15 15 15 15 15 15 14 14 14 14 14 14 14 14 14 14 13 13 13 13 13 13 13 13 12 12 12 12 12 12 12 12 11 11 11 11
15 15 15 15 15 15 14 14 15 15 14 14 14 14 14 14 14 14 13 13 13 13 13 13 13 13 12 12 12 12 12 12 12 11 11 11 11 11 11 11 11 11 10
15 14 14 14 14 14 14 14 14 14 14 14 14 14 14 14 13 13 13 13 13 13 13 13 12 12 12 12 12 12 12 11 11 11 11 11 11 11 11 10 10 10 10
14 14 14 14 14 14 14 14 14 14 14 13 13 13 13 13 13 13 13 12 12 12 12 12 12 12 12 11 11 11 11 11 11 11 10 10 10 10 10 10 10 10 10
14 14 14 14 14 14 14 13 13 13 13 13 13 13 12 12 12 12 12 12 12 12 12 12 11 11 11 11 11 11 11 11 10 10 10 10 10 10 10 10 10 10 10
13 13 13 13 13 13 13 13 13 13 13 13 13 12 12 12 12 12 12 12 12 11 11 11 11 11 11 11 10 10 10 10 10 10 10 10 9 9 9 9 9 9 9
13 13 13 13 13 13 13 13 13 13 12 12 12 12 12 11 11 11 11 11 11 11 11 11 10 10 10 10 10 10 10 10 9 9 9 9 9 9 9 9 9 9 8
12 12 12 13 13 13 12 12 12 12 12 12 11 11 11 11 11 11 11 11 10 10 10 10 10 10 10 10 9 9 9 9 9 9 9 9 9 8 8 8 8 8 8
12 12 12 12 12 12 12 12 11 11 11 11 11 11 10 10 10 10 10 10 10 10 10 10 10 9 9 9 9 9 9 9 9 8 8 8 8 8 8 8 8 8 8
12 12 12 11 11 11 11 11 11 11 11 11 10 10 10 10 10 9 9 9 9 9 9 9 9 9 9 8 8 8 8 8 8 8 8 8 8 8 8 7 7 7 7
11 11 11 11 11 11 11 11 10 10 10 10 10 10 9 9 9 9 9 9 9 9 9 9 9 8 8 8 8 8 8 8 8 8 8 8 7 7 7 7 7 7 7
11 11 11 10 10 10 10 10 10 10 10 9 9 9 9 9 9 8 8 8 8 8 8 8 8 8 8 8 8 8 8 8 8 8 7 7 7 7 7 7 7 7 7
Wind_Speed
11 10 9 9 8 7 7 7 6 5 6 6 7 7 7 6 6 5 6 5 6 5 4 4 5 4 3 3 3 3 3 4 4 4 3 2 2 3 3 3 5 5 6
11 10 9 8 8 8 8 7 7 6 5 6 6 6 6 6 6 6 7 6 6 6 5 5 5 4 4 3 3 3 3 4 4 4 3 2 3 4 3 3 3 4 5
10 10 10 9 8 9 9 8 7 7 6 5 5 6 6 6 6 6 7 6 6 6 6 6 6 4 5 3 3 3 3 3 3 3 3 2 2 2 1 2 2 2 4
10 10 10 10 10 9 8 8 7 7 6 6 5 6 6 6 6 6 6 6 6 6 5 5 5 5 6 5 4 4 3 2 2 2 3 2 2 2 1 2 2 3 3
8 9 9 9 8 7 7 7 7 7 7 6 5 6 6 6 6 7 6 6 6 5 4 4 5 5 6 5 4 3 3 2 2 2 2 2 2 1 2 2 3 3 3
8 9 8 7 7 7 7 7 6 6 6 5 5 6 6 6 7 9 8 6 6 6 5 5 5 5 5 6 7 6 6 5 4 3 3 4 5 4 3 3 2 1 3
7 7 7 7 8 8 8 7 7 7 6 5 5 5 6 7 9 8 8 6 5 6 6 5 5 4 4 3 4 4 4 6 7 5 5 6 5 5 4 3 3 4 5
5 6 6 6 7 8 7 8 7 6 6 6 6 6 5 6 8 7 7 5 5 5 6 5 5 4 4 4 3 2 3 3 4 4 5 6 6 5 5 5 5 4 4
4 5 5 6 6 6 7 8 7 6 6 5 5 5 6 6 8 8 6 3 3 4 4 4 5 4 4 5 3 3 3 5 5 5 6 7 8 7 5 3 2 2 4
4 4 4 4 5 5 6 5 4 5 5 5 5 5 6 5 7 8 6 3 3 2 2 3 4 5 5 4 4 4 4 5 4 5 5 5 5 5 5 5 5 4 3
3 3 3 4 4 4 4 3 4 4 4 4 4 4 4 6 6 7 7 4 3 3 2 2 2 4 5 4 4 5 7 5 4 4 4 4 3 3 3 4 5 5 4
3 3 3 2 3 3 3 3 3 4 3 3 3 3 3 3 4 5 6 5 4 3 3 3 3 4 5 5 5 6 7 4 3 2 3 3 4 4 4 4 4 5 6
2 2 2 2 2 2 3 4 3 4 4 3 3 3 2 1 2 3 5 5 5 3 3 4 4 5 5 4 6 6 4 2 2 3 4 4 4 4 3 2 3 3 4
2 2 2 2 1 1 2 2 3 3 4 4 4 4 3 2 2 2 2 2 3 2 2 2 3 4 3 4 3 3 2 3 3 4 4 4 2 2 2 2 2 2 3
2 2 2 2 2 2 1 2 3 3 5 5 4 5 5 5 6 6 4 3 3 3 2 0 1 1 1 2 2 2 2 2 2 3 3 2 2 2 3 2 2 2 2
1 2 2 2 2 2 1 1 3 2 2 4 6 6 4 6 7 6 5 4 4 5 4 2 2 2 3 3 3 3 3 3 3 3 2 2 2 2 3 2 2 2 3
3 3 2 3 3 3 2 2 1 3 3 2 3 5 5 7 6 6 6 4 4 5 3 3 3 3 3 3 3 4 4 3 3 2 3 2 2 2 2 3 3 2 3
3 3 3 3 3 3 3 3 3 3 1 1 2 4 5 5 5 5 4 3 1 1 3 3 3 3 3 3 3 3 3 2 2 2 2 2 2 2 2 3 3 3 3
2 2 2 3 2 3 3 3 3 3 3 2 1 1 2 3 2 2 3 3 3 3 3 3 3 3 3 3 3 3 3 3 3 3 3 3 3 2 3 3 3 3 3
2 3 2 2 2 2 2 3 3 3 3 2 2 2 1 2 2 2 2 3 3 3 3 4 3 3 3 3 2 2 2 3 3 3 3 3 3 3 3 3 3 3 3
2 2 2 2 2 3 2 3 3 3 3 3 2 3 4 3 3 3 3 3 4 4 4 4 3 3 3 2 2 2 3 3 3 3 3 3 2 3 3 3 3 3 3
1 1 1 2 2 2 2 2 2 3 3 3 2 1 3 2 2 2 2 2 3 3 3 3 3 3 3 2 2 2 3 3 3 3 3 3 3 3 3 3 3 3 3
1 1 1 0 1 2 2 2 2 2 2 2 2 1 1 1 2 2 2 2 2 2 2 2 2 2 2 2 3 3 3 4 4 4 4 4 3 3 3 3 4 4 3
1 1 1 1 1 1 2 2 2 2 2 2 2 1 1 1 2 1 1 1 1 2 1 1 2 3 3 2 2 2 3 3 3 4 5 5 4 4 3 3 4 4 4
1 1 2 2 2 2 2 2 2 2 2 2 2 2 1 1 1 1 1 1 1 1 1 0 1 2 3 4 3 2 2 2 2 2 3 3 4 4 4 4 4 3 3
0 1 1 2 2 2 2 2 2 2 2 2 2 2 2 2 1 1 1 1 1 1 1 0 1 2 2 3 3 2 1 1 1 2 2 3 3 3 3 3 4 4 4
Wind_Direction
197 199 203 204 204 202 204 208 205 206 204 206 209 205 204 207 207 209 219 216 219 231 234 232 239 239 245 246 232 221 212 194 230 261 246 245 224 235 242 241 244 243 242
194 192 198 202 199 201 207 208 203 203 204 205 202 202 207 209 208 212 225 225 221 228 232 231 242 243 242 246 236 234 228 213 212 253 263 241 239 235 230 234 240 246 245
190 192 195 200 203 208 209 205 201 201 202 202 199 204 212 215 216 219 219 221 223 226 226 226 234 230 244 245 239 242 246 243 213 223 256 245 246 241 235 253 252 258 251
187 191 198 202 206 211 210 203 204 202 201 205 207 211 216 219 221 220 213 215 222 226 224 225 231 226 233 234 242 241 241 243 234 231 253 259 250 250 198 246 273 258 256
186 194 203 203 202 205 209 204 204 204 207 206 209 218 221 220 222 214 215 219 224 231 235 238 238 235 237 231 232 224 217 225 236 240 254 263 256 239 235 232 248 265 263
185 201 205 199 196 200 205 201 200 205 209 207 215 219 223 229 226 218 214 218 221 223 235 247 247 248 247 236 230 224 214 217 224 229 247 250 255 243 235 229 229 257 277
187 195 200 203 201 203 207 201 204 207 203 205 218 222 225 230 227 223 219 214 218 222 227 235 248 252 239 235 240 246 246 239 223 214 233 245 245 237 224 231 227 226 241
193 199 203 203 208 205 201 205 209 207 207 211 216 222 224 232 225 221 219 217 222 229 228 222 228 235 237 212 219 241 262 262 243 231 230 244 246 238 221 222 226 240 261
202 204 201 197 203 204 205 210 207 203 207 214 217 218 224 239 228 216 206 208 227 245 247 231 214 215 223 199 192 229 270 282 277 257 257 257 255 244 222 208 226 234 267
220 211 199 186 188 202 205 206 206 207 212 215 225 224 222 231 230 214 201 201 224 245 262 239 218 211 214 197 196 213 247 267 284 297 294 288 275 260 233 212 212 222 241
209 202 199 184 184 197 195 197 199 205 212 223 231 233 225 224 224 214 199 195 205 213 226 243 237 215 218 218 213 222 237 251 270 273 278 285 286 273 256 231 215 213 222
178 173 168 167 183 190 189 208 205 198 208 225 229 251 248 229 222 209 193 187 185 195 219 227 236 230 232 236 234 239 247 253 254 264 271 272 272 270 267 257 239 233 232
171 173 166 163 180 189 197 205 207 197 196 209 213 226 246 253 240 211 190 184 189 199 221 225 233 244 243 245 245 248 250 237 235 251 258 259 254 254 262 277 280 263 268
179 192 188 178 205 231 222 213 207 203 199 204 208 218 225 230 220 204 180 182 191 201 233 252 252 254 249 248 258 260 237 225 225 240 252 260 267 268 268 264 271 276 278
198 210 207 201 198 225 255 255 222 221 207 199 207 204 203 217 221 205 195 204 206 202 173 28 324 305 295 287 275 258 250 242 240 252 253 263 270 271 272 267 255 264 260
195 237 220 214 215 202 205 315 340 288 255 219 211 201 207 204 198 203 209 213 209 183 155 187 228 238 241 245 248 253 250 243 238 227 233 241 255 265 278 281 266 249 260
200 224 225 218 213 205 195 189 243 341 353 320 244 227 213 200 201 205 204 195 197 168 171 212 229 237 246 245 239 236 240 245 237 236 245 253 255 262 269 271 267 262 265
212 224 223 224 219 208 199 199 193 193 215 307 301 249 220 204 203 200 181 132 144 182 207 220 231 236 234 234 238 244 249 248 232 235 243 249 251 254 266 267 261 254 258
226 225 236 235 219 208 198 194 194 193 191 198 218 287 201 172 167 181 164 174 199 218 225 229 231 232 233 232 236 239 238 236 233 231 240 248 250 248 255 255 256 262 256
264 256 249 228 224 220 201 188 190 191 188 187 198 211 177 131 151 199 215 210 215 226 227 227 235 235 233 235 238 237 235 241 240 233 240 248 253 250 247 252 254 258 261
240 259 254 238 227 219 206 198 193 187 181 178 200 209 179 176 190 210 218 217 216 224 227 225 228 227 230 232 232 232 230 240 242 236 241 247 253 258 253 245 247 253 265
236 242 243 240 232 203 190 185 179 175 176 178 192 203 187 180 194 206 227 232 225 221 219 212 219 222 221 215 216 223 229 234 237 237 238 239 245 251 250 247 247 251 253
224 252 263 241 200 181 167 165 164 159 168 187 178 177 191 215 226 242 251 257 240 232 229 217 216 232 228 197 194 205 215 226 227 222 225 233 239 241 243 243 243 245 248
230 226 196 193 208 200 182 178 172 166 165 168 173 175 194 219 232 244 257 267 283 265 245 213 212 214 214 202 187 189 197 209 211 209 214 225 232 236 235 237 242 240 240
217 203 181 183 186 191 183 177 176 175 176 180 181 184 194 203 214 233 258 278 297 307 300 211 175 190 192 196 198 206 213 209 214 208 202 213 221 227 226 228 233 237 236
231 180 159 160 174 179 174 175 176 170 175 186 189 189 185 186 196 221 239 245 266 289 288 280 191 189 180 177 185 185 187 202 214 222 199 195 215 228 228 231 227 224 225
Height
1518 1520 1522 1524 1526 1528 1530 1531 1533 1534 1535 1536 1536 1537 1537 1538 1539 1539 1539 1539 1539 1539 1540 1540 1539 1539 1539 1539 1539 1539 1538 1538 1537 1536 1536 1537 1537 1536 1536 1535 1535 1534 1534
1515 1517 1519 1521 1523 1524 1526 1527 1529 1530 1531 1532 1532 1533 1534 1534 1535 1535 1536 1536 1536 1536 1536 1536 1536 1536 1535 1535 1535 1535 1535 1535 1534 1532 1532 1533 1533 1533 1533 1532 1532 1531 1531
1512 1514 1515 1516 1518 1520 1522 1523 1525 1526 1527 1528 1529 1530 1530 1531 1531 1532 1532 1533 1532 1532 1533 1533 1532 1532 1532 1532 1531 1531 1531 1531 1531 1530 1529 1529 1529 1529 1529 1528 1528 1528 1527
1508 1510 1511 1512 1514 1516 1518 1519 1521 1522 1523 1524 1525 1526 1526 1527 1528 1528 1528 1529 1529 1529 1529 1529 1529 1528 1528 1528 1528 1527 1527 1527 1527 1526 1525 1525 1525 1525 1524 1524 1523 1523 1523
1504 1505 1507 1509 1511 1513 1514 1515 1517 1518 1519 1520 1521 1521 1522 1523 1523 1524 1524 1525 1525 1525 1525 1525 1525 1524 1524 1524 1524 1524 1523 1523 1522 1522 1521 1521 1521 1520 1520 1519 1519 1519 1518
1499 1501 1503 1505 1507 1508 1510 1511 1512 1513 1514 1515 1516 1517 1517 1518 1519 1520 1520 1521 1521 1521 1521 1521 1521 1521 1520 1520 1520 1520 1519 1519 1518 1517 1517 1516 1516 1516 1515 1515 1514 1514 1513
1495 1497 1498 1500 1502 1503 1505 1507 1508 1508 1509 1510 1511 1512 1513 1514 1515 1516 1516 1517 1517 1517 1516 1517 1517 1516 1516 1516 1516 1515 1515 1515 1514 1514 1513 1512 1512 1511 1511 1510 1510 1509 1509
1492 1493 1495 1496 1497 1499 1500 1501 1503 1504 1505 1505 1506 1508 1509 1510 1510 1511 1512 1512 1512 1512 1512 1512 1512 1512 1512 1512 1512 1511 1510 1510 1510 1509 1508 1508 1508 1507 1507 1507 1506 1506 1505
1489 1489 1490 1491 1492 1494 1495 1496 1497 1498 1499 1500 1502 1503 1504 1505 1506 1506 1507 1507 1507 1507 1507 1507 1507 1508 1508 1508 1507 1506 1506 1505 1505 1504 1504 1503 1503 1503 1502 1502 1501 1501 1499
1484 1484 1486 1487 1489 1490 1491 1492 1493 1494 1495 1496 1497 1499 1499 1500 1501 1502 1502 1503 1502 1503 1503 1503 1503 1503 1503 1503 1503 1502 1501 1500 1500 1499 1499 1498 1498 1498 1498 1497 1497 1496 1495
1481 1482 1483 1483 1485 1486 1486 1488 1489 1491 1491 1492 1493 1494 1494 1495 1496 1497 1497 1497 1497 1497 1498 1498 1498 1499 1499 1499 1498 1498 1497 1496 1495 1494 1493 1493 1493 1493 1493 1493 1492 1492 1491
1478 1479 1480 1481 1481 1482 1483 1485 1486 1487 1487 1488 1488 1489 1489 1490 1491 1491 1492 1493 1493 1493 1493 1493 1493 1494 1494 1494 1493 1493 1492 1492 1490 1489 1488 1488 1488 1487 1487 1487 1487 1487 1487
1475 1476 1477 1478 1478 1479 1480 1481 1482 1483 1483 1483 1484 1485 1485 1485 1486 1487 1488 1488 1489 1489 1489 1489 1489 1489 1489 1489 1488 1488 1487 1486 1485 1484 1483 1483 1483 1482 1482 1482 1482 1482 1482
1473 1474 1474 1475 1475 1476 1477 1477 1478 1478 1479 1479 1480 1481 1481 1481 1482 1483 1483 1484 1484 1484 1484 1484 1485 1485 1485 1484 1483 1483 1482 1481 1481 1480 1478 1478 1478 1478 1477 1477 1476 1476 1476
1470 1470 1471 1472 1471 1472 1473 1473 1474 1474 1475 1475 1476 1477 1477 1477 1478 1479 1479 1479 1479 1480 1480 1480 1480 1480 1479 1479 1479 1478 1478 1477 1476 1475 1474 1474 1473 1473 1472 1472 1472 1472 1471
1467 1467 1467 1468 1468 1468 1469 1469 1470 1470 1471 1472 1473 1473 1474 1474 1475 1475 1475 1476 1476 1476 1475 1475 1475 1475 1474 1474 1474 1474 1473 1472 1472 1471 1470 1470 1469 1468 1468 1468 1467 1467 1466
1463 1463 1464 1464 1465 1465 1465 1465 1465 1467 1467 1467 1469 1469 1469 1469 1469 1470 1471 1471 1471 1471 1471 1470 1471 1470 1470 1470 1469 1469 1468 1468 1468 1467 1466 1465 1465 1464 1464 1463 1463 1462 1461
1460 1460 1460 1460 1461 1461 1461 1462 1462 1463 1463 1464 1465 1465 1465 1465 1466 1466 1467 1467 1467 1467 1466 1466 1466 1466 1466 1465 1465 1464 1463 1463 1463 1462 1461 1461 1460 1459 1459 1458 1458 1457 1457
1456 1456 1456 1456 1457 1457 1458 1458 1459 1460 1460 1461 1461 1461 1461 1461 1461 1462 1462 1462 1462 1462 1462 1462 1462 1461 1461 1460 1460 1459 1458 1458 1457 1457 1456 1455 1455 1454 1454 1453 1453 1453 1452
1453 1453 1453 1453 1454 1454 1454 1455 1455 1456 1456 1456 1457 1457 1457 1456 1456 1457 1458 1457 1457 1457 1457 1457 1457 1456 1456 1455 1454 1454 1453 1453 1452 1452 1451 1450 1450 1449 1448 1448 1448 1448 1448
1450 1450 1450 1450 1450 1450 1450 1451 1451 1452 1452 1452 1453 1454 1454 1453 1453 1453 1453 1453 1452 1453 1453 1452 1452 1452 1451 1450 1449 1448 1448 1447 1446 1446 1445 1445 1444 1444 1444 1443 1443 1443 1443
1447 1447 1447 1447 1447 1447 1448 1448 1448 1448 1448 1449 1450 1451 1451 1450 1449 1449 1449 1448 1448 1448 1448 1448 1447 1447 1446 1445 1444 1443 1442 1441 1441 1440 1440 1439 1439 1439 1439 1439 1438 1438 1439
1445 1444 1444 1444 1445 1445 1445 1445 1446 1445 1446 1446 1446 1446 1447 1446 1446 1445 1445 1444 1444 1443 1443 1443 1442 1441 1441 1440 1439 1438 1437 1436 1435 1435 1434 1434 1434 1434 1434 1434 1434 1434 1434
1442 1442 1442 1442 1442 1442 1443 1443 1443 1443 1443 1444 1443 1443 1443 1443 1443 1442 1442 1441 1440 1439 1438 1438 1437 1436 1435 1434 1434 1433 1432 1431 1430 1430 1429 1429 1429 1429 1429 1429 1430 1430 1430
1439 1439 1439 1439 1439 1440 1440 1440 1440 1440 1440 1441 1441 1440 1440 1440 1440 1439 1438 1437 1437 1435 1434 1433 1432 1431 1431 1430 1429 1428 1428 1427 1426 1425 1425 1425 1425 1425 1425 1425 1425 1426 1426
1437 1436 1436 1436 1437 1437 1437 1437 1437 1437 1438 1438 1438 1438 1437 1437 1436 1436 1435 1434 1433 1432 1431 1430 1429 1428 1427 1426 1425 1424 1423 1422 1421 1421 1421 1421 1421 1421 1421 1421 1421 1422 1423